{"data":{"norad_id":65460,"intl_designator":"2025-195C","name":"STARLINK-34850","alt_names":[],"object_type":"PAYLOAD","status":"ACTIVE","operator":null,"country":"US","launch_date":"2025-09-03","launch_site_code":"AFETR","launch_vehicle":null,"mission":null,"orbit_class":"UNKNOWN","rcs_meters":null,"size_class":null,"mass_kg":null,"dimensions":null,"purposes":["comms"],"wikipedia_slug":null,"has_3d_model":false,"image_url":null,"decayed_at":null,"tle_current":{"epoch":"2026-05-24T19:45:55.120032Z","epoch_age_seconds":84184,"freshness":"FRESH","line1":"1 65460U 25195C   26144.82355463  .00024493  00000+0  73443-3 0  9991","line2":"2 65460  53.1594 264.2987 0001433  59.9197 300.1947 15.34367742 41651","mean_motion":15.34367742,"eccentricity":0.0001433,"inclination_deg":53.1594,"raan_deg":264.2987,"arg_perigee_deg":59.9197,"mean_anomaly_deg":300.1947,"bstar":0.00073443,"rev_number":4165,"period_min":93.849731103119,"perigee_km":461.81881331499,"apogee_km":463.77942560683,"semimajor_km":6840.9361194609,"source":"CELESTRAK","updated_at":"2026-05-25T13:38:20.811786Z"}}}